This demonstration page uses our WeatherBlox Daily Observations layout. Learn more.

Left ArrowRight Arrow

Hourly Observations for April 2, 2018

Temp ( °F °C ) Dew Point ( °F °C ) Humidity (%) Winds ( mph kmh ) Pressure ( in mb ) Visibility ( mi km ) Precip ( " mm )
12:56 am 00:56 Clear 20 -6.7 17 -8.3 89 89 S 10 17 30.07 1018 10 16 0.00 0.00
1:56 am 01:56 Clear 21 -6.1 18 -7.8 88 88 S 14 22 30.06 1018 10 16 0.00 0.00
2:56 am 02:56 Clear 20 -6.7 18 -7.8 92 92 S 12 19 30.04 1017 10 16 0.00 0.00
3:56 am 03:56 Clear 19 -7.2 17 -8.3 92 92 S 7 11 30.00 1016 10 16 0.00 0.00
4:56 am 04:56 Clear 19 -7.2 18 -7.8 96 96 S 14 22 29.93 1014 10 16 0.00 0.00
5:56 am 05:56 Mostly Clear 19 -7.2 18 -7.8 96 96 S 13 20 29.93 1014 10 16 0.00 0.00
6:09 am 06:09 Mostly Cloudy 19 -7 18 -8 93 93 S 13 20 30.00 1016 10 16 0.00 0.00
6:53 am 06:53 Cloudy with Mist and Fog 19 -7 19 -7 100 100 S 14 22 30.03 1017 5 8 0.00 0.00
6:56 am 06:56 Cloudy with Mist and Fog 20 -6.7 19 -7.2 96 96 S 13 20 29.93 1014 6 10 0.00 0.00
7:25 am 07:25 Cloudy 21 -6 19 -7 93 93 S 15 24 29.97 1015 9 14 0.00 0.00
7:56 am 07:56 Cloudy 22 -5.6 21 -6.1 96 96 S 16 26 29.88 1012 9 14 0.00 0.00
8:56 am 08:56 Cloudy 23 -5 22 -5.6 96 96 S 25 41 29.80 1009 10 16 0.00 0.00
9:24 am 09:24 Cloudy 25 -4 21 -6 86 86 S 25 41 29.83 1010 10 16 0.00 0.00
9:56 am 09:56 Mostly Cloudy 26 -3.3 22 -5.6 84 84 S 26 43 29.75 1007 10 16 0.00 0.00
10:37 am 10:37 Mostly Cloudy 28 -2 25 -4 86 86 S 22 35 29.80 1009 10 16 0.00 0.00
10:56 am 10:56 Cloudy 29 -1.7 25 -3.9 85 85 S 29 46 29.74 1007 10 16 0.00 0.00
11:18 am 11:18 Windy with Snow Likely 30 -1 27 -3 86 86 S 21 33 29.77 1008 6 10 0.00 0.03
11:56 am 11:56 Cloudy 31 -0.6 27 -2.8 85 85 S 20 31 29.75 1007 10 16 0.00 0.03
12:49 pm 12:49 Cloudy 34 1 28 -2 81 81 S 21 33 29.74 1007 10 16 0.00 0.00
12:56 pm 12:56 Cloudy 33 0.6 27 -2.8 78 78 S 20 31 29.72 1006 10 16 0.00 0.00
1:56 pm 13:56 Cloudy 35 1.7 30 -1.1 82 82 S 23 37 29.67 1005 10 16 0.00 0.00
2:03 pm 14:03 Cloudy 36 2 30 -1 81 81 S 18 30 29.68 1005 10 16 0.00 0.00
2:33 pm 14:33 Partly Cloudy 39 4 30 -1 70 70 S 16 26 29.68 1005 10 16 0.00 0.00
2:56 pm 14:56 Sunny 40 4.4 32 0 73 73 S 15 24 29.64 1004 10 16 0.00 0.00
3:56 pm 15:56 Sunny 45 7.2 33 0.6 63 63 SSE 16 26 29.59 1002 10 16 0.00 0.00
4:56 pm 16:56 Sunny 45 7.2 33 0.6 63 63 SSE 14 22 29.57 1001 10 16 0.00 0.00
5:56 pm 17:56 Sunny 47 8.3 33 0.6 59 59 SSE 14 22 29.54 1001 10 16 0.00 0.00
6:56 pm 18:56 Sunny 47 8.3 35 1.7 63 63 SE 12 19 29.53 1000 10 16 0.00 0.00
7:56 pm 19:56 Sunny 41 5 36 2.2 82 82 E 15 24 29.54 1001 10 16 0.00 0.00
8:56 pm 20:56 Clear 35 1.7 32 0 89 89 ENE 15 24 29.59 1002 9 14 0.00 0.00
9:13 pm 21:13 Mostly Clear 34 1 30 -1 87 87 E 21 33 29.59 1002 9 14 0.00 0.00
9:27 pm 21:27 Mostly Cloudy 32 0 30 -1 93 93 ENE 18 30 29.65 1004 8 13 0.00 0.00
9:56 pm 21:56 Cloudy 32 0 30 -1.1 92 92 E 20 31 29.63 1004 7 11 0.00 0.00
10:10 pm 22:10 Cloudy 32 0 30 -1 93 93 E 20 31 29.68 1005 8 13 0.00 0.00
10:51 pm 22:51 Cloudy with Mist and Fog 30 -1 30 -1 100 100 E 18 30 29.68 1005 3 5 0.00 0.00
10:56 pm 22:56 Cloudy with Mist and Fog 31 -0.6 30 -1.1 96 96 E 21 33 29.64 1004 3 4 0.00 0.00
11:07 pm 23:07 Windy with Snow Likely 30 -1 30 -1 100 100 E 21 33 29.68 1005 1 2 0.00 0.03
11:15 pm 23:15 Cloudy with Light Snow 30 -1 30 -1 100 100 E 18 30 29.68 1005 1 2 0.00 0.03
11:24 pm 23:24 Cloudy with Light Snow 30 -1 30 -1 100 100 E 18 30 29.68 1005 1 1 0.00 0.03
11:42 pm 23:42 Cloudy with Light Snow 30 -1 30 -1 100 100 E 17 28 29.68 1005 1 1 0.00 0.03
11:56 pm 23:56 Windy with Snow Likely 31 -0.6 30 -1.1 96 96 E 20 31 29.63 1003 1 1 0.00 0.03

Powered by AerisWeather